Regional Weather Roundup
Issued by NWS

Home | Current Version | Previous Version | Graphics & Text | Print | Product List | Glossary On
Versions: 1 2 3 4 5 6 7 8 9 10 11 12 13 14 15 16 17 18 19 20 21 22 23 24 25 26 27 28 29 30 31 32 33 34 35 36 37 38 39 40 41 42 43 44 45 46 47 48 49 50
000
ASUS43 KDMX 270308
RWRIA

WEATHER ROUNDUP FOR IOWA
NATIONAL WEATHER SERVICE DES MOINES IA
1000 PM CDT THU MAY 26 2016

NOTE: "FAIR" INDICATES FEW OR NO CLOUDS BELOW 12,000 FEET WITH NO
SIGNIFICANT WEATHER AND/OR OBSTRUCTIONS TO VISIBILITY.

* - THESE STATIONS ARE NOT NWS STATIONS...THUS NOT UNDER NWS
QUALITY CONTROL.  THEY ALSO DO NOT REPORT WEATHER SUCH
AS PRECIPITATION OR FOG.

IAZ001>003-012>014-020>022-031>034-043>046-270400-
   NORTHWEST IOWA

CITY           SKY/WX    TMP DP  RH WIND       PRES   REMARKS
CARROLL *      CLOUDY    64  54  68 S29G37    29.79S
CHEROKEE *     CLOUDY    63  57  82 SW6       29.78F
LE MARS *      CLEAR     66  55  68 S12       29.79F
ORANGE CITY *  CLEAR     64  57  77 S10       29.79F
SHELDON *      CLEAR     64  59  82 S12       29.78F
SIOUX CITY     CLOUDY    67  55  65 E10G22    29.75F
SPENCER        CLOUDY    65  57  75 S9        29.81S
STORM LAKE *   CLEAR     63  54  72 S12       29.81F
$$

IAZ055>058-069>071-079>083-090>094-270400-
   SOUTHWEST IOWA

CITY           SKY/WX    TMP DP  RH WIND       PRES   REMARKS
ATLANTIC *     CLOUDY    63  55  77 E21G30    29.80F
AUDUBON *      CLEAR     63  55  77 S12       29.84F
CLARINDA *       N/A     61  59  94 MISG      29.94F
COUNCIL BLFS * CLEAR     63  55  77 SE23G29   29.78F
CRESTON *      LGT RAIN  61  59  94 NE9       29.97S
HARLAN  *      MOCLDY    63  54  72 SE25      29.80F
LAMONI         LGT RAIN  62  61  96 N6        29.95S
RED OAK *      CLOUDY    63  55  77 E22G32    29.84F
SHENANDOAH *   LGT RAIN  63  59  88 E17G26    29.87F
$$

IAZ047>049-059>061-072>074-084-270400-
   CENTRAL IOWA

CITY           SKY/WX    TMP DP  RH WIND       PRES   REMARKS
AMES           LGT RAIN  63  57  81 S22G29    29.81F
ANKENY *       CLOUDY    63  63 100 S16       29.89F
BOONE *          N/A     64  57  77 S21G31    29.81R
CHARITON *     LGT RAIN  63  63 100 N6        29.93F
DES MOINES     LGT RAIN  63  59  87 S12       29.93F
GRINNELL*      LGT RAIN  63  59  88 W5        29.92F
KNOXVILLE *    LGT RAIN  64  61  88 NW8       29.91F
MARSHALLTOWN   LGT RAIN  65  59  81 S32G47    29.81F
NEWTON *       CLOUDY    63  63 100 SW7       29.93F
PELLA *        LGT RAIN  64  61  88 W7        29.93F
PERRY *        CLOUDY    63  59  88 S30G38    29.80F
$$

IAZ004>006-015-016-023>025-035-036-270400-
   NORTH CENTRAL IOWA

CITY           SKY/WX    TMP DP  RH WIND       PRES   REMARKS
ALGONA *       CLOUDY    68  57  68 SW10      29.85R
CLARION *      CLEAR     64  57  77 SE20      29.82F
ESTHERVILLE    CLOUDY    65  56  72 S18G24    29.83R
FORT DODGE *   CLOUDY    64  54  68 SW3       29.84R
MASON CITY     CLOUDY    66  59  78 S12       29.87R
FOREST CITY *  PTCLDY    64  59  82 S9        29.87R
WEBSTER CITY * PTCLDY    64  57  77 SE23      29.77F
IOWA FALLS *     N/A     64  57  77 SW3G9     29.86S
$$

IAZ007>011-017>019-026>030-037>042-050>054-066-270400-
   NORTHEAST IOWA

CITY           SKY/WX    TMP DP  RH WIND       PRES   REMARKS
CEDAR RAPIDS   CLOUDY    68  60  75 SW7       29.88F
CHARLES CITY * PTCLDY    68  59  73 SW14      29.88S
CLINTON *      CLOUDY    74  65  73 SE5       29.88S
DECORAH *      CLEAR     70  61  73 E3        29.85F
DUBUQUE        CLOUDY    69  59  70 CALM      29.89R
MONTICELLO *   MOCLDY    72  61  68 CALM      29.87F
OELWEIN *      CLOUDY    70  59  68 SW16G25   29.88F
WATERLOO       CLOUDY    67  56  67 SW14G24   29.85F
$$

IAZ064-065-067-068-078-270400-
   EAST CENTRAL IOWA

CITY           SKY/WX    TMP DP  RH WIND       PRES   REMARKS
DAVENPORT      CLOUDY    76  64  66 SW10      29.89R
IOWA CITY      CLOUDY    71  57  61 NW8       29.91R
MT. PLEASANT * LGT RAIN  72  64  78 NW10G18   29.90F
MUSCATINE *    LGT RAIN  73  59  60 W13G22    29.91R
QUAD CITIES    CLOUDY    77  63  61 SW7       29.87R
$$

IAZ062-063-075>077-085>089-095>099-270400-
   SOUTHEAST IOWA

CITY           SKY/WX    TMP DP  RH WIND       PRES   REMARKS
BURLINGTON     CLOUDY    75  65  70 NW13      29.90R
FAIRFIELD *      N/A    N/A N/A N/A MISG        N/A
FORT MADISON * LGT RAIN  72  64  78 NW14G22   29.90R
KEOKUK *       LGT RAIN  73  66  78 VRB5G20   29.88S
OSKALOOSA *    LGT RAIN  64  61  88 W17       29.91R
OTTUMWA        LGT RAIN  64  60  87 W8        29.92R
WASHINGTON *   CLOUDY    72  66  83 SW13G18   29.96R
$$

ABBREVIATIONS USED IN REMARKS
   TC - TEMPERATURES IN CELSIUS
  WCI - WIND CHILL INDEX
   HX - HEAT INDEX
  VSB - VISIBILITY
$$





USA.gov is the U.S. government's official web portal to all federal, state and local government web resources and services.